Flag for Hungary Weather past 2 weeks in Szeged, Hungary

Now
45 °F

Fog.


Feels Like: 43 °F
Forecast: 42 / 54 °F
Wind: 5 mph from Southwest

Location: Szeged

Current Time: Mar 1, 2015 at 12:27:09 PM

Latest Report: Mar 1, 2015 at 11:00 AM


Visibility: 3 mi

Pressure: 30.04 "Hg

Humidity: 87%

Dew point: 42 °F

Location of SzegedLocation

Historic Weather in Szeged — Graph

°F

Szeged temperature yesterday

Maximum temperature yesterday: 46 °F (at 3:00 PM)
Minimum temperature yesterday: 41 °F (at 7:00 AM)
Average temperature yesterday: 44 °F

Past Weeks' High & Low Weather Summary

 TemperatureHumidityPressure
High57 °F (Feb 24, 3:00 PM)96% (Feb 23, 4:00 AM)30.76 "Hg (Feb 23, 4:00 AM)
Low20 °F (Feb 18, 7:00 AM)29% (Feb 18, 3:00 PM)29.64 "Hg (Feb 24, 4:00 PM)
Average40 °F78%30.10 "Hg
* Reported Feb 14 11:00 AM — Mar 1 11:00 AM, Szeged, Weather by CustomWeather, © 2015

Note: Actual official high and low records may vary slightly from our data, if they occured in-between our weather recording intervals... More about our weather records

Advertising

Szeged weather history for previous 24 hours

 ConditionsComfort  
Time TempWeatherWind HumidityBarometerVisibility
11:00 AM
Sun, Mar 1
45 °FFog.5 mph87%30.04 "Hg3 mi
10:00 AM45 °FFog.3 mph89%30.04 "Hg3 mi
9:00 AM44 °FOvercast.3 mph91%30.06 "Hg2 mi
8:00 AM42 °FLight rain. Overcast.1 mph96%30.06 "Hg2 mi
7:00 AM42 °FLight rain. Overcast.1 mph95%30.06 "Hg2 mi
6:00 AM42 °FFog.1 mph94%30.06 "Hg3 mi
5:00 AM42 °FFog.1 mph94%30.06 "Hg3 mi
4:00 AM42 °FFog.2 mph94%30.06 "Hg3 mi
3:00 AM42 °FFog.1 mph93%30.08 "Hg3 mi
2:00 AM43 °FFog.1 mph94%30.09 "Hg3 mi
1:00 AM43 °FOvercast.1 mph94%30.11 "Hg4 mi
12:00 AM43 °FOvercast.No wind93%30.10 "Hg4 mi
11:00 PM
Sat, Feb 28
43 °FOvercast.1 mph92%30.10 "Hg4 mi
10:00 PM44 °FOvercast.1 mph92%30.11 "Hg4 mi
9:00 PM44 °FOvercast.2 mph92%30.11 "Hg4 mi
8:00 PM44 °FLight rain. Overcast.No wind92%30.11 "Hg4 mi
7:00 PM45 °FOvercast.No wind89%30.09 "Hg4 mi
6:00 PM45 °FLight rain. Overcast.2 mph87%30.08 "Hg4 mi
5:00 PM46 °FOvercast.2 mph82%30.08 "Hg4 mi
4:00 PM46 °FOvercast.3 mph81%30.07 "Hg5 mi
3:00 PM46 °FOvercast.5 mph84%30.06 "Hg5 mi
2:00 PM46 °FOvercast.3 mph85%30.07 "Hg4 mi
1:00 PM45 °FOvercast.5 mph86%30.07 "Hg4 mi
12:00 PM44 °FLight rain. Overcast.5 mph89%30.08 "Hg4 mi
Weather by CustomWeather, © 2015

See weather overviewHow to use our weather pages